Overview Statistics Trail Chart Weather Telemetry Raw packets
 

This is the latest recevied weather packets stored in our database for station/object W4UWO. If no packets are shown the sender has not sent any weather packets the latest 10 day(s).

<< 104 105 106 107 108 109 110 >>
Time Temp. Humidity Pressure Rain* Wind** Luminosity Snow
1787837194 24.44° C 79% 1017.2 hPa 0 mm - 194 W/m² -
1787836893 23.89° C 80% 1017 hPa 0 mm - 167 W/m² -
1787836588 23.89° C 80% 1017.3 hPa 0 mm - 100 W/m² -
1787836288 23.89° C 82% 1017 hPa 0 mm - 89 W/m² -
1787835984 23.33° C 82% 1017.1 hPa 0 mm - 79 W/m² -
1787835680 23.33° C 83% 1017.1 hPa 0 mm - 158 W/m² -
1787835374 22.78° C 84% 1017.2 hPa 0 mm - 158 W/m² -
1787835069 22.78° C 85% 1017.2 hPa 0 mm - 144 W/m² -
1787834768 21.67° C 88% 1017.2 hPa 0 mm - 145 W/m² -
1787834463 21.67° C 88% 1017 hPa 0 mm - 133 W/m² -
1787834159 21.67° C 89% 1016.8 hPa 0 mm - 96 W/m² -
1787833854 22.22° C 86% 1017.2 hPa 0 mm - 110 W/m² -
1787833549 22.22° C 86% 1016.9 hPa 0 mm - 86 W/m² -
1787833246 21.67° C 87% 1017 hPa 0 mm - 99 W/m² -
1787832940 21.11° C 90% 1017.1 hPa 0 mm - 82 W/m² -
1787832636 20.56° C 93% 1016.9 hPa 0 mm - 75 W/m² -
1787832334 20° C 94% 1016.9 hPa 0 mm - 67 W/m² -
1787832035 20° C 94% 1017 hPa 0 mm - 37 W/m² -
1787831734 20° C 95% 1016.8 hPa 0 mm - 31 W/m² -
1787831433 19.44° C 95% 1016.9 hPa 0 mm - 28 W/m² -
1787831135 19.44° C 95% 1017.1 hPa 0 mm - 23 W/m² -
1787830831 19.44° C 95% 1017.1 hPa 0 mm - 17 W/m² -
1787830528 19.44° C 96% 1016.8 hPa 0 mm - 11 W/m² -
1787830227 19.44° C 96% 1016.7 hPa 0 mm - 7 W/m² -
1787829922 19.44° C 96% 1016.7 hPa 0 mm - 5 W/m² -

* Rain latest hour (hover to see other rain measurements)
** Current wind speed in m/s (hover to see current wind gust speed)